Location: Newark
(30.0333°N, 31.2167°E)
Time: 14:50:40
(UTC+00:00)

Tiros 1 despin weight - Pass Details

Date: 22 January 2020
Orbit: 594 x 642 km, 48.2° (Epoch: 23 February)

Event Time Altitude Azimuth Distance (km) Brightness Sun altitude
Rises 08:49:42 0° 217° (SW) 2,834 ? 36.9°
Reaches altitude 10° 08:52:00 10° 212° (SSW) 1,941 ? 37.1°
Maximum altitude 08:56:22 55° 135° (SE) 732 ? 37.4°
Drops below altitude 10° 09:00:48 10° 58° (ENE) 1,979 ? 37.8°
Sets 09:03:10 0° 54° (NE) 2,895 ? 37.9°
